Location: Austin
(30.3000°N, 97.7500°W)
Time: 11:48:02
(UTC-05:00)

CZ-4 R/B - Pass Details

Date: 05 September 2024
Orbit: 512 x 566 km, 97.6° (Epoch: 11 September)

Event Time Altitude Azimuth Distance (km) Brightness Sun altitude
Exits shadow 21:26:29 26° 194° (SSW) 1,048 2.6 -21.4°
Maximum altitude 21:28:22 53° 260° (W) 640 1.9 -21.8°
Drops below altitude 10° 21:32:03 10° 338° (NNW) 1,753 4.5 -22.5°
Sets 21:34:12 0° 343° (NNW) 2,651 5.4 -22.9°
